Location: Volcán Tajumulco
(15.0427°N, 91.9045°W)
Time: 18:17:45
(UTC-06:00)

CUTE-I - Visible Passes

Search period start: 23 January 2021 00:00
Search period end: 02 February 2021 00:00
Orbit: 810 x 825 km, 98.7° (Epoch: 23 January)

Date Brightness Start Highest point End Pass type
(mag) Time Alt. Az. Time Alt. Az. Time Alt. Az.
23 Jan ? 19:14:45 10° WSW 19:16:38 12° W 19:18:33 10° WNW visible
24 Jan ? 06:02:24 10° NNE 06:07:38 64° ESE 06:12:51 10° S visible
24 Jan ? 18:51:06 10° SSW 18:55:07 22° W 18:59:09 10° NW visible
25 Jan ? 05:41:21 10° NE 05:46:10 36° E 05:50:58 10° SSE visible
25 Jan ? 18:28:43 10° SSW 18:33:38 38° W 18:38:33 10° NNW visible
26 Jan ? 05:20:50 10° NE 05:24:39 20° E 05:28:29 10° SSE visible
27 Jan ? 05:01:52 10° E 05:03:08 11° E 05:04:24 10° ESE visible
28 Jan ? 19:06:20 10° SW 19:09:14 15° W 19:12:07 10° WNW visible
29 Jan ? 05:55:06 10° NNE 06:00:14 52° ESE 06:05:22 10° S visible
29 Jan ? 18:43:20 10° SSW 18:47:43 26° W 18:52:07 10° NW visible
30 Jan ? 05:34:11 10° NE 05:38:45 29° E 05:43:17 10° SSE visible
30 Jan ? 18:21:09 10° S 18:26:14 47° WSW 18:31:19 10° NNW visible
31 Jan ? 05:13:57 10° ENE 05:17:14 17° E 05:20:31 10° SE visible
